#timestamp,LO_Frequency,Hit,StdDev 
1590195615.1,286047000.7,N
1590195616.0,286047000.7,N
1590195635.8,286047001.2,N
1590195655.6,286047000.7,N
1590195675.5,286047000.5,N
1590195695.3,286047000.5,N
1590195715.1,286047002.6,N
1590195735.9,286047001.8,N
1590195755.7,286047004.1,N
1590195775.6,286047005.2,Y
1590195795.4,286047004.8,P
1590195815.3,286047004.8,N
1590195835.1,286047002.9,N
1590195836.0,286047002.9,N
1590195855.8,286047003.0,N
1590195875.7,286047005.9,Y
1590195895.5,286047000.2,P
1590195915.3,286046999.8,N
1590195935.2,286046999.7,N
1590195955.0,286047001.1,N
1590195955.9,286047001.1,N
1590195975.8,286046999.7,N
1590195995.6,286047000.0,N
1590196015.4,286047000.3,N
1590196035.3,286047000.2,N
1590196055.1,286046999.8,N
1590196075.8,286047002.7,N
1590196095.7,286047002.4,N
1590196115.5,286046999.7,N
1590196135.4,286047002.7,N
1590196155.2,286047003.9,Y
1590196175.0,286047001.8,P
1590196175.9,286047001.8,P
1590196195.8,286047001.9,P
1590196215.6,286047002.8,Y
1590196235.5,286046999.3,P
1590196255.3,286046998.1,N
1590196275.1,286046998.8,N
1590196295.9,286047001.1,N
1590196315.7,286047000.1,N
1590196335.5,286047000.8,N
1590196355.4,286047001.1,N
1590196375.2,286046998.5,N
1590196395.1,286046998.9,N
1590196396.0,286046998.9,N
1590196415.8,286046998.8,N
1590196435.6,286046999.0,N
1590196455.5,286046998.7,N
1590196475.3,286046999.6,N
1590196495.2,286046999.1,N
1590196515.9,286046998.6,N
1590196535.7,286046998.5,N
1590196555.6,286047000.7,N
1590196575.4,286047000.5,N
1590196595.2,286047000.2,N
1590196615.1,286047002.3,N
1590196616.0,286047002.3,N
1590196635.8,286046999.9,N
1590196655.7,286047000.4,N
1590196675.5,286046999.9,N
1590196695.3,286046998.2,N
1590196715.2,286046998.7,N
1590196735.0,286047001.2,N
1590196735.9,286047001.2,N
1590196755.8,286047001.2,N
1590196775.6,286046998.4,N
1590196795.4,286046998.9,N
1590196815.3,286046998.3,N
1590196835.1,286047001.2,N
1590196855.9,286046998.2,N
1590196875.7,286046998.3,N
1590196895.5,286047001.0,N
1590196915.4,286046998.1,N
1590196935.2,286046999.2,N
1590196955.0,286046999.9,N
1590196955.9,286046999.9,N
1590196975.8,286046999.8,N
1590196995.6,286047000.4,N
1590197015.5,286047000.7,N
1590197035.3,286047002.7,N
1590197055.1,286047002.7,N
1590197075.9,286046998.2,N
1590197095.7,286047000.4,N
1590197145.6,286047002.1,E
1590197155.5,286047001.0,N
1590197175.3,286046997.5,P
1590197195.2,286046997.3,N
1590197215.0,286046996.8,N
1590197215.9,286046996.8,N
1590197235.8,286046996.7,N
1590197255.6,286046996.9,N
1590197275.4,286046997.8,N
1590197295.3,286046995.2,Y
1590197315.1,286046998.2,P
1590197335.9,286047000.8,N
1590197355.7,286047000.4,N
1590197375.5,286047000.0,N
1590197395.4,286046998.2,N
1590197415.2,286047000.5,N
1590197435.0,286047002.4,N
1590197435.9,286047002.4,N
1590197455.8,286047000.2,N
1590197475.6,286046999.9,N
1590197495.5,286047000.3,N
1590197515.3,286047002.5,N
1590197535.1,286047001.4,N
1590197555.9,286047002.2,N
1590197575.7,286047000.6,N
1590197595.5,286047002.2,N
1590197615.4,286047002.4,N
1590197635.2,286047000.4,N
1590197655.1,286047002.4,N
1590197656.0,286047002.4,N
1590197675.8,286046999.8,N
1590197695.6,286046999.9,N
1590197715.5,286046999.8,N
1590197735.3,286047002.1,N
1590197755.1,286047001.3,N
1590197775.9,286047002.0,N
1590197795.7,286047002.8,N
1590197815.6,286047000.0,N
1590197835.4,286047001.2,N
1590197855.2,286046998.8,N
1590197875.1,286047001.0,N
1590197876.0,286047001.0,N
1590197895.8,286046998.1,N
1590197915.6,286046999.7,N
1590197935.5,286047002.7,N
1590197955.3,286046999.9,N
1590197975.2,286047000.2,N
1590197995.9,286047000.5,N
1590198015.7,286046998.5,N
1590198035.6,286046996.8,N
1590198055.4,286046996.5,N
1590198075.2,286046998.9,N
1590198095.1,286046999.5,N
1590198096.0,286046999.5,N
1590198115.8,286046998.4,N
1590198135.7,286046996.8,N
1590198155.5,286046996.5,N
1590198175.3,286046996.6,N
1590198195.2,286046998.7,N
1590198215.0,286047000.8,N
1590198215.9,286047000.8,N
1590198235.7,286047000.8,N
1590198255.6,286047000.1,N
1590198275.4,286047000.0,N
1590198295.3,286046998.8,N
1590198315.1,286046998.5,N
1590198316.0,286046998.5,N
1590198335.8,286047000.9,N
1590198355.7,286047000.5,N
1590198375.5,286046998.3,N
1590198395.3,286046998.2,N
1590198415.2,286046998.9,N
1590198435.0,286047000.9,N
1590198435.9,286047000.9,N
1590198455.8,286046998.8,N
1590198475.6,286046999.2,N
1590198495.4,286046998.9,N
1590198515.3,286046998.8,N
1590198535.1,286046998.6,N
1590198555.9,286046998.5,N
1590198575.7,286047001.0,N
1590198595.5,286047000.5,N
1590198615.4,286046998.5,N
1590198635.2,286046998.4,N
1590198655.0,286046998.2,N
1590198655.9,286046998.2,N
1590198675.8,286046998.2,N
1590198695.6,286047002.5,N
1590198715.5,286047002.1,N
1590198735.3,286047004.0,Y
1590198755.1,286047003.9,P
1590198775.9,286047004.3,N
1590198795.7,286047002.3,N
1590198815.6,286047002.1,N
1590198835.4,286047002.0,N
1590198855.2,286047002.3,N
1590198875.1,286047001.4,N
1590198876.0,286047001.4,N
1590198895.8,286047002.6,N
1590198915.6,286046999.8,N
1590198935.5,286047000.9,N
1590198955.3,286047001.1,N
1590198975.2,286047000.4,N
1590198995.9,286047004.3,Y
1590199015.7,286046999.8,P
1590199035.6,286047000.5,N
1590199055.4,286047000.4,N
1590199075.2,286047000.6,N
1590199095.1,286046998.1,Y
1590199096.0,286046998.1,P
1590199115.8,286046998.7,N
1590199135.7,286046998.3,N
1590199155.5,286047001.0,N
1590199175.3,286047000.8,N
1590199195.2,286047000.8,N
